User: anonymous   Login
Location: Newark
(35.8833°N, 14.5000°E)
Time: 13:52:02
(UTC+00:00)
Language:

Explorer 7 - Orbit

View from above orbital plane
View from above orbital plane
View from above satellite
View from above satellite

Ground track
Ground track

The orbit data is extracted from the following two-line orbital elements,

1    22U 59009A   19324.22470835  .00000094  00000-0  30222-4 0  9993
2    22  50.2853   8.3447 0140084 175.6712 184.5482 14.94991733193871
Epoch (UTC): 20 November 2019 05:23:34
Eccentricity: 0.0140084
inclination: 50.2853°
perigee height: 485 km
apogee height: 680 km
right ascension of ascending node: 8.3447°
argument of perigee: 175.6712°
revolutions per day: 14.94991733
mean anomaly at epoch: 184.5482°
orbit number at epoch: 19387

The dashed part of the orbit path shows where the satellite is in the earth's shadow,  

DLR